| time (UTC) | temp F | wind direction | speed knots | gust knots | rain 1hr in | rain 24hr in | rain mn in | humidity % | barometer mb |
| 20260510061040 | 62 | 0 | 0.9 | 3.5 | 0.00 | 0.00 | 0.00 | 54 | 1028.0 |
| 20260510060540 | 62 | 110 | 0.9 | 2.6 | 0.00 | 0.00 | 0.00 | 53 | 1028.0 |
| 20260510060050 | 63 | 121 | 0.9 | 4.3 | 0.00 | 0.00 | 0.00 | 53 | 1028.1 |
| 20260510055539 | 63 | 53 | 2.6 | 6.1 | 0.00 | 0.00 | 0.00 | 53 | 1028.0 |
| 20260510055039 | 63 | 128 | 1.7 | 6.1 | 0.00 | 0.00 | 0.00 | 53 | 1028.0 |
| 20260510054551 | 63 | 131 | 2.6 | 6.1 | 0.00 | 0.00 | 0.00 | 52 | 1028.2 |
| 20260510054040 | 64 | 163 | 1.7 | 7.8 | 0.00 | 0.00 | 0.00 | 50 | 1028.1 |
| 20260510053540 | 65 | 130 | 2.6 | 7.8 | 0.00 | 0.00 | 0.00 | 50 | 1028.1 |
| 20260510053053 | 66 | 137 | 1.7 | 6.1 | 0.00 | 0.00 | 0.00 | 48 | 1028.1 |
| 20260510052543 | 67 | 117 | 0.9 | 3.5 | 0.00 | 0.00 | 0.00 | 48 | 1028.1 |
| 20260510052039 | 66 | 0 | 0.0 | 2.6 | 0.00 | 0.00 | 0.00 | 47 | 1028.1 |
| 20260510051602 | 66 | 42 | 0.0 | 2.6 | 0.00 | 0.00 | 0.00 | 48 | 1028.0 |
| 20260510051039 | 65 | 44 | 0.0 | 3.5 | 0.00 | 0.00 | 0.00 | 48 | 1028.0 |
| 20260510050541 | 66 | 0 | 0.9 | 3.5 | 0.00 | 0.00 | 0.00 | 48 | 1028.1 |
| 20260510050059 | 66 | 51 | 0.9 | 7.8 | 0.00 | 0.00 | 0.00 | 49 | 1028.0 |
| 20260510045539 | 65 | 2 | 0.9 | 7.8 | 0.00 | 0.00 | 0.00 | 50 | 1028.0 |
| 20260510045039 | 66 | 141 | 0.9 | 4.3 | 0.00 | 0.00 | 0.00 | 49 | 1028.1 |
| 20260510044552 | 65 | 75 | 0.0 | 6.1 | 0.00 | 0.00 | 0.00 | 50 | 1028.0 |
| 20260510044041 | 65 | 125 | 0.9 | 6.1 | 0.00 | 0.00 | 0.00 | 50 | 1028.1 |
| 20260510043539 | 65 | 150 | 0.0 | 3.5 | 0.00 | 0.00 | 0.00 | 49 | 1028.1 |
| 20260510043054 | 65 | 141 | 0.9 | 5.2 | 0.00 | 0.00 | 0.00 | 49 | 1028.2 |
| 20260510042539 | 65 | 101 | 1.7 | 7.0 | 0.00 | 0.00 | 0.00 | 50 | 1028.1 |
| 20260510042038 | 64 | 0 | 0.9 | 7.0 | 0.00 | 0.00 | 0.00 | 51 | 1028.1 |
| 20260510041551 | 65 | 0 | 3.5 | 7.0 | 0.00 | 0.00 | 0.00 | 49 | 1028.2 |
| 20260510041039 | 65 | 79 | 0.9 | 5.2 | 0.00 | 0.00 | 0.00 | 49 | 1028.3 |
| 20260510040537 | 66 | 124 | 0.0 | 6.1 | 0.00 | 0.00 | 0.00 | 49 | 1028.3 |
| 20260510035539 | 65 | 127 | 1.7 | 6.1 | 0.00 | 0.00 | 0.00 | 51 | 1028.3 |
| 20260510035040 | 64 | 49 | 0.0 | 2.6 | 0.00 | 0.00 | 0.00 | 53 | 1028.4 |
| 20260510034548 | 65 | 56 | 0.9 | 6.1 | 0.00 | 0.00 | 0.00 | 51 | 1028.5 |
| 20260510034040 | 64 | 0 | 1.7 | 6.1 | 0.00 | 0.00 | 0.00 | 54 | 1028.6 |
| 20260510033542 | 63 | 102 | 1.7 | 5.2 | 0.00 | 0.00 | 0.00 | 56 | 1028.7 |
| 20260510033056 | 63 | 122 | 1.7 | 7.0 | 0.00 | 0.00 | 0.00 | 54 | 1028.6 |
| 20260510032539 | 63 | 126 | 3.5 | 7.0 | 0.00 | 0.00 | 0.00 | 53 | 1028.7 |
| 20260510032040 | 63 | 87 | 0.9 | 1.7 | 0.00 | 0.00 | 0.00 | 54 | 1028.8 |
| 20260510031555 | 63 | 65 | 0.9 | 3.5 | 0.00 | 0.00 | 0.00 | 54 | 1028.8 |
| 20260510031040 | 63 | 65 | 0.9 | 7.0 | 0.00 | 0.00 | 0.00 | 55 | 1029.0 |
| 20260510030539 | 62 | 58 | 0.9 | 8.7 | 0.00 | 0.00 | 0.00 | 56 | 1029.0 |
| 20260510030059 | 62 | 183 | 1.7 | 8.7 | 0.00 | 0.00 | 0.00 | 57 | 1029.1 |
| 20260510025539 | 61 | 176 | 1.7 | 5.2 | 0.00 | 0.00 | 0.00 | 59 | 1029.1 |
| 20260510025040 | 61 | 142 | 1.7 | 6.1 | 0.00 | 0.00 | 0.00 | 58 | 1029.3 |
| 20260510024554 | 61 | 147 | 3.5 | 7.0 | 0.00 | 0.00 | 0.00 | 59 | 1029.4 |
| 20260510024041 | 61 | 174 | 3.5 | 7.0 | 0.00 | 0.00 | 0.00 | 60 | 1029.5 |
| 20260510023539 | 61 | 144 | 2.6 | 5.2 | 0.00 | 0.00 | 0.00 | 60 | 1029.6 |
| 20260510023052 | 61 | 135 | 2.6 | 4.3 | 0.00 | 0.00 | 0.00 | 59 | 1029.6 |
| 20260510022540 | 61 | 98 | 1.7 | 4.3 | 0.00 | 0.00 | 0.00 | 58 | 1029.8 |
| 20260510022038 | 61 | 123 | 1.7 | 4.3 | 0.00 | 0.00 | 0.00 | 58 | 1030.0 |
| 20260510021642 | 61 | 139 | 0.9 | 4.3 | 0.00 | 0.00 | 0.00 | 58 | 1029.9 |
| 20260510021039 | 61 | 103 | 1.7 | 4.3 | 0.00 | 0.00 | 0.00 | 58 | 1029.9 |
| 20260510020541 | 61 | 147 | 1.7 | 4.3 | 0.00 | 0.00 | 0.00 | 57 | 1030.0 |
| 20260510020059 | 61 | 89 | 0.0 | 0.9 | 0.00 | 0.00 | 0.00 | 59 | 1030.0 |
| 20260510015539 | 61 | 0 | 0.0 | 2.6 | 0.00 | 0.00 | 0.00 | 58 | 1030.2 |
| 20260510015040 | 60 | 89 | 0.9 | 3.5 | 0.00 | 0.00 | 0.00 | 59 | 1030.4 |
| 20260510014558 | 60 | 68 | 0.9 | 4.3 | 0.00 | 0.00 | 0.00 | 60 | 1030.3 |
| 20260510014040 | 60 | 127 | 1.7 | 5.2 | 0.00 | 0.00 | 0.00 | 58 | 1030.6 |
| 20260510013541 | 60 | 134 | 2.6 | 5.2 | 0.00 | 0.00 | 0.00 | 58 | 1030.5 |
| 20260510013100 | 61 | 129 | 0.9 | 3.5 | 0.00 | 0.00 | 0.00 | 59 | 1030.6 |
| 20260510012539 | 60 | 122 | 0.9 | 3.5 | 0.00 | 0.00 | 0.00 | 61 | 1030.6 |
| 20260510012039 | 60 | 54 | 0.9 | 2.6 | 0.00 | 0.00 | 0.00 | 60 | 1030.6 |
| 20260510011549 | 60 | 75 | 0.9 | 2.6 | 0.00 | 0.00 | 0.00 | 62 | 1030.6 |
| 20260510011040 | 59 | 96 | 0.0 | 2.6 | 0.00 | 0.00 | 0.00 | 63 | 1030.6 |
| 20260510010540 | 59 | 71 | 0.0 | 2.6 | 0.00 | 0.00 | 0.00 | 65 | 1030.5 |
| 20260510010057 | 59 | 96 | 0.9 | 2.6 | 0.00 | 0.00 | 0.00 | 65 | 1030.6 |
| 20260510005538 | 59 | 72 | 0.0 | 1.7 | 0.00 | 0.00 | 0.00 | 66 | 1030.5 |
| 20260510005037 | 58 | 72 | 0.9 | 2.6 | 0.00 | 0.00 | 0.00 | 65 | 1030.6 |
| 20260510004551 | 59 | 74 | 0.0 | 2.6 | 0.00 | 0.00 | 0.00 | 64 | 1030.5 |
| 20260510004037 | 59 | 74 | 0.0 | 2.6 | 0.00 | 0.00 | 0.00 | 64 | 1030.5 |
| 20260510003539 | 58 | 70 | 0.0 | 2.6 | 0.00 | 0.00 | 0.00 | 64 | 1030.4 |
| 20260510003048 | 58 | 68 | 0.9 | 1.7 | 0.00 | 0.00 | 0.00 | 64 | 1030.5 |
| 20260510002538 | 58 | 67 | 0.9 | 2.6 | 0.00 | 0.00 | 0.00 | 64 | 1030.6 |
| 20260510002036 | 58 | 67 | 0.0 | 2.6 | 0.00 | 0.00 | 0.00 | 65 | 1030.5 |
| 20260510001549 | 58 | 67 | 0.9 | 2.6 | 0.00 | 0.00 | 0.00 | 64 | 1030.5 |
| 20260510001040 | 58 | 103 | 0.0 | 2.6 | 0.00 | 0.00 | 0.00 | 65 | 1030.4 |
| 20260510000541 | 58 | 0 | 0.9 | 3.5 | 0.00 | 0.00 | 0.00 | 65 | 1030.5 |
| 20260510000051 | 58 | 70 | 0.0 | 3.5 | 0.00 | 0.00 | 0.00 | 65 | 1030.5 |
| 20260509235543 | 58 | 34 | 0.9 | 2.6 | 0.00 | 0.00 | 0.00 | 65 | 1030.4 |
| 20260509235039 | 58 | 89 | 0.0 | 1.7 | 0.00 | 0.00 | 0.00 | 67 | 1030.4 |
| 20260509234549 | 57 | 89 | 0.0 | 1.7 | 0.00 | 0.00 | 0.00 | 69 | 1030.4 |
| 20260509234038 | 57 | 89 | 0.9 | 1.7 | 0.00 | 0.00 | 0.00 | 68 | 1030.5 |
| 20260509233539 | 57 | 0 | 0.0 | 1.7 | 0.00 | 0.00 | 0.00 | 67 | 1030.3 |
| 20260509233051 | 57 | 110 | 0.9 | 1.7 | 0.00 | 0.00 | 0.00 | 66 | 1030.3 |
| 20260509232539 | 57 | 108 | 0.9 | 4.3 | 0.00 | 0.00 | 0.00 | 66 | 1030.3 |
| 20260509232039 | 57 | 108 | 0.0 | 4.3 | 0.00 | 0.00 | 0.00 | 68 | 1030.3 |
| 20260509231550 | 57 | 127 | 0.9 | 3.5 | 0.00 | 0.00 | 0.00 | 67 | 1030.2 |
| 20260509231040 | 57 | 133 | 0.9 | 2.6 | 0.00 | 0.00 | 0.00 | 66 | 1030.2 |
| 20260509230540 | 56 | 98 | 0.9 | 2.6 | 0.00 | 0.00 | 0.00 | 68 | 1030.2 |
| 20260509230052 | 56 | 98 | 0.0 | 3.5 | 0.00 | 0.00 | 0.00 | 68 | 1030.2 |
| 20260509225539 | 56 | 98 | 1.7 | 3.5 | 0.00 | 0.00 | 0.00 | 70 | 1030.1 |
| 20260509225039 | 56 | 103 | 1.7 | 2.6 | 0.00 | 0.00 | 0.00 | 72 | 1030.1 |
| 20260509224549 | 56 | 116 | 1.7 | 2.6 | 0.00 | 0.00 | 0.00 | 71 | 1030.0 |
| 20260509224039 | 55 | 110 | 0.0 | 1.7 | 0.00 | 0.00 | 0.00 | 73 | 1030.0 |
| 20260509223539 | 55 | 0 | 0.0 | 1.7 | 0.00 | 0.00 | 0.00 | 75 | 1030.0 |
| 20260509223048 | 55 | 0 | 0.0 | 0.9 | 0.00 | 0.00 | 0.00 | 77 | 1029.9 |
| 20260509222539 | 55 | 0 | 0.0 | 0.9 | 0.00 | 0.00 | 0.00 | 77 | 1029.8 |
| 20260509222039 | 55 | 0 | 0.0 | 0.9 | 0.00 | 0.00 | 0.00 | 77 | 1029.9 |
| 20260509221550 | 55 | 110 | 0.0 | 0.9 | 0.00 | 0.00 | 0.00 | 76 | 1029.8 |
| 20260509221038 | 55 | 0 | 0.0 | 0.0 | 0.00 | 0.00 | 0.00 | 74 | 1029.8 |
| 20260509220539 | 55 | 0 | 0.0 | 0.9 | 0.00 | 0.00 | 0.00 | 73 | 1029.7 |
| 20260509220050 | 55 | 0 | 0.0 | 1.7 | 0.00 | 0.00 | 0.00 | 73 | 1029.7 |
| 20260509215541 | 54 | 0 | 0.0 | 2.6 | 0.00 | 0.00 | 0.00 | 74 | 1029.7 |
| 20260509215039 | 54 | 47 | 0.0 | 2.6 | 0.00 | 0.00 | 0.00 | 74 | 1029.6 |
| 20260509214549 | 54 | 0 | 0.0 | 2.6 | 0.00 | 0.00 | 0.00 | 75 | 1029.6 |
| 20260509214038 | 54 | 0 | 0.0 | 0.9 | 0.00 | 0.00 | 0.00 | 77 | 1029.5 |
| 20260509213539 | 54 | 0 | 0.0 | 0.0 | 0.00 | 0.00 | 0.00 | 79 | 1029.5 |
| 20260509213105 | 54 | 0 | 0.0 | 0.0 | 0.00 | 0.00 | 0.00 | 79 | 1029.4 |
| 20260509212539 | 54 | 0 | 0.0 | 0.9 | 0.00 | 0.00 | 0.00 | 79 | 1029.4 |
| 20260509212040 | 53 | 0 | 0.0 | 0.9 | 0.00 | 0.00 | 0.00 | 81 | 1029.3 |
| 20260509211559 | 53 | 0 | 0.0 | 0.9 | 0.00 | 0.00 | 0.00 | 81 | 1029.3 |
| 20260509211040 | 53 | 0 | 0.0 | 0.9 | 0.00 | 0.00 | 0.00 | 82 | 1029.2 |
| 20260509210540 | 53 | 0 | 0.0 | 0.9 | 0.00 | 0.00 | 0.00 | 82 | 1029.1 |
| 20260509210051 | 53 | 0 | 0.0 | 0.9 | 0.00 | 0.00 | 0.00 | 82 | 1029.1 |
| 20260509205544 | 53 | 0 | 0.0 | 1.7 | 0.00 | 0.00 | 0.00 | 81 | 1029.0 |
| 20260509205040 | 53 | 84 | 0.0 | 1.7 | 0.00 | 0.00 | 0.00 | 79 | 1029.0 |
| 20260509204549 | 54 | 0 | 0.0 | 0.0 | 0.00 | 0.00 | 0.00 | 79 | 1028.9 |
| 20260509204038 | 54 | 0 | 0.0 | 0.0 | 0.00 | 0.00 | 0.00 | 79 | 1028.9 |
| 20260509203542 | 54 | 0 | 0.0 | 0.0 | 0.00 | 0.00 | 0.00 | 78 | 1028.7 |
| 20260509203057 | 54 | 0 | 0.0 | 0.0 | 0.00 | 0.00 | 0.00 | 78 | 1028.6 |
| 20260509202541 | 54 | 0 | 0.0 | 1.7 | 0.00 | 0.00 | 0.00 | 78 | 1028.7 |
| 20260509202042 | 54 | 0 | 0.0 | 2.6 | 0.00 | 0.00 | 0.00 | 78 | 1028.6 |
| 20260509201603 | 54 | 0 | 0.0 | 2.6 | 0.00 | 0.00 | 0.00 | 78 | 1028.6 |
| 20260509201040 | 54 | 124 | 0.9 | 2.6 | 0.00 | 0.00 | 0.00 | 79 | 1028.4 |
| 20260509200541 | 54 | 0 | 0.0 | 1.7 | 0.00 | 0.00 | 0.00 | 80 | 1028.4 |
| 20260509200055 | 54 | 0 | 0.0 | 1.7 | 0.00 | 0.00 | 0.00 | 81 | 1028.4 |
| 20260509195540 | 54 | 0 | 0.0 | 0.9 | 0.00 | 0.00 | 0.00 | 82 | 1028.4 |
| 20260509195040 | 54 | 0 | 0.0 | 1.7 | 0.00 | 0.00 | 0.00 | 82 | 1028.5 |
| 20260509194558 | 54 | 0 | 0.0 | 1.7 | 0.00 | 0.00 | 0.00 | 82 | 1028.3 |
| 20260509194040 | 53 | 0 | 0.0 | 0.9 | 0.00 | 0.00 | 0.00 | 83 | 1028.2 |
| 20260509193539 | 53 | 0 | 0.0 | 0.9 | 0.00 | 0.00 | 0.00 | 83 | 1028.2 |
| 20260509193059 | 54 | 0 | 0.0 | 0.9 | 0.00 | 0.00 | 0.00 | 83 | 1028.1 |
| 20260509192538 | 54 | 0 | 0.0 | 0.0 | 0.00 | 0.00 | 0.00 | 83 | 1028.2 |
| 20260509192040 | 54 | 0 | 0.0 | 0.0 | 0.00 | 0.00 | 0.00 | 83 | 1028.2 |
| 20260509191604 | 54 | 0 | 0.0 | 0.0 | 0.00 | 0.00 | 0.00 | 83 | 1028.1 |
| 20260509191039 | 54 | 0 | 0.0 | 0.0 | 0.00 | 0.00 | 0.00 | 84 | 1028.0 |
| 20260509190540 | 54 | 0 | 0.0 | 0.9 | 0.00 | 0.00 | 0.00 | 84 | 1027.9 |
| 20260509190053 | 54 | 0 | 0.0 | 0.9 | 0.00 | 0.00 | 0.00 | 84 | 1027.9 |
| 20260509185541 | 54 | 0 | 0.0 | 0.9 | 0.00 | 0.00 | 0.00 | 83 | 1027.9 |
| 20260509185041 | 54 | 0 | 0.0 | 0.9 | 0.00 | 0.00 | 0.00 | 83 | 1027.8 |
| 20260509184601 | 54 | 0 | 0.0 | 0.0 | 0.00 | 0.00 | 0.00 | 83 | 1027.8 |
| 20260509184040 | 54 | 0 | 0.0 | 0.0 | 0.00 | 0.00 | 0.00 | 83 | 1027.8 |
| 20260509183540 | 54 | 0 | 0.0 | 0.0 | 0.00 | 0.00 | 0.00 | 83 | 1027.8 |
| 20260509183056 | 54 | 0 | 0.0 | 0.0 | 0.00 | 0.00 | 0.00 | 83 | 1027.8 |
| 20260509182538 | 54 | 0 | 0.0 | 0.0 | 0.00 | 0.00 | 0.00 | 82 | 1027.7 |
| 20260509182040 | 54 | 0 | 0.0 | 0.0 | 0.00 | 0.00 | 0.00 | 82 | 1027.8 |
| 20260509181552 | 54 | 0 | 0.0 | 0.0 | 0.00 | 0.00 | 0.00 | 82 | 1027.7 |
| 20260509181041 | 54 | 0 | 0.0 | 0.0 | 0.00 | 0.00 | 0.00 | 82 | 1027.8 |
| 20260509180538 | 54 | 0 | 0.0 | 0.0 | 0.00 | 0.00 | 0.00 | 81 | 1027.7 |
| 20260509180058 | 54 | 0 | 0.0 | 0.0 | 0.00 | 0.00 | 0.00 | 81 | 1027.7 |
| 20260509175542 | 54 | 0 | 0.0 | 0.0 | 0.00 | 0.00 | 0.00 | 81 | 1027.7 |
| 20260509175039 | 54 | 0 | 0.0 | 0.0 | 0.00 | 0.00 | 0.00 | 80 | 1027.8 |
| 20260509174548 | 55 | 0 | 0.0 | 0.0 | 0.00 | 0.00 | 0.00 | 80 | 1027.9 |
| 20260509174040 | 55 | 0 | 0.0 | 0.9 | 0.00 | 0.00 | 0.00 | 80 | 1027.9 |
| 20260509173538 | 55 | 0 | 0.0 | 1.7 | 0.00 | 0.00 | 0.00 | 80 | 1027.9 |
| 20260509173102 | 55 | 84 | 0.0 | 1.7 | 0.00 | 0.00 | 0.00 | 81 | 1027.9 |
| 20260509172540 | 55 | 0 | 0.0 | 0.9 | 0.00 | 0.00 | 0.00 | 80 | 1027.9 |
| 20260509172040 | 55 | 0 | 0.0 | 0.9 | 0.00 | 0.00 | 0.00 | 80 | 1027.9 |
| 20260509171547 | 55 | 82 | 0.0 | 1.7 | 0.00 | 0.00 | 0.00 | 81 | 1027.9 |
| 20260509171043 | 55 | 0 | 0.0 | 1.7 | 0.00 | 0.00 | 0.00 | 81 | 1027.9 |
| 20260509170539 | 55 | 0 | 0.0 | 0.9 | 0.00 | 0.00 | 0.00 | 82 | 1027.9 |
| 20260509170047 | 55 | 0 | 0.0 | 1.7 | 0.00 | 0.00 | 0.00 | 83 | 1027.9 |
| 20260509165539 | 56 | 0 | 0.0 | 2.6 | 0.00 | 0.00 | 0.00 | 83 | 1028.0 |
| 20260509165039 | 56 | 124 | 0.9 | 2.6 | 0.00 | 0.00 | 0.00 | 83 | 1028.0 |
| 20260509164551 | 55 | 124 | 1.7 | 2.6 | 0.00 | 0.00 | 0.00 | 84 | 1028.1 |
| 20260509164038 | 55 | 124 | 0.9 | 2.6 | 0.00 | 0.00 | 0.00 | 84 | 1028.0 |
| 20260509163538 | 55 | 124 | 1.7 | 4.3 | 0.00 | 0.00 | 0.00 | 85 | 1028.1 |
| 20260509163052 | 55 | 124 | 1.7 | 4.3 | 0.00 | 0.00 | 0.00 | 86 | 1028.1 |
| 20260509162539 | 55 | 98 | 0.9 | 2.6 | 0.00 | 0.00 | 0.00 | 86 | 1028.1 |
| 20260509162039 | 55 | 97 | 0.9 | 1.7 | 0.00 | 0.00 | 0.00 | 86 | 1028.2 |
| 20260509161601 | 55 | 98 | 0.9 | 1.7 | 0.00 | 0.00 | 0.00 | 86 | 1028.1 |
| 20260509161039 | 55 | 97 | 0.9 | 1.7 | 0.00 | 0.00 | 0.00 | 86 | 1028.1 |
| 20260509160541 | 54 | 97 | 0.0 | 1.7 | 0.00 | 0.00 | 0.00 | 87 | 1028.1 |
| 20260509160058 | 54 | 97 | 0.0 | 0.9 | 0.00 | 0.00 | 0.00 | 87 | 1028.1 |
| 20260509155539 | 54 | 0 | 0.0 | 0.9 | 0.00 | 0.00 | 0.00 | 88 | 1028.2 |
| 20260509155039 | 54 | 0 | 0.0 | 1.7 | 0.00 | 0.00 | 0.00 | 88 | 1028.2 |
| 20260509154552 | 54 | 0 | 0.0 | 1.7 | 0.00 | 0.00 | 0.00 | 88 | 1028.2 |
| 20260509154040 | 54 | 0 | 0.0 | 1.7 | 0.00 | 0.00 | 0.00 | 89 | 1028.3 |
| 20260509153539 | 54 | 0 | 0.0 | 1.7 | 0.00 | 0.00 | 0.00 | 89 | 1028.3 |
| 20260509153059 | 54 | 44 | 0.9 | 1.7 | 0.00 | 0.00 | 0.00 | 89 | 1028.3 |
| 20260509152540 | 54 | 0 | 0.0 | 0.9 | 0.00 | 0.00 | 0.00 | 89 | 1028.3 |
| 20260509152039 | 54 | 0 | 0.0 | 1.7 | 0.00 | 0.00 | 0.00 | 89 | 1028.4 |
| 20260509151552 | 55 | 122 | 0.0 | 1.7 | 0.00 | 0.00 | 0.00 | 89 | 1028.5 |
| 20260509151039 | 55 | 130 | 0.9 | 1.7 | 0.00 | 0.00 | 0.00 | 89 | 1028.6 |
| 20260509150539 | 55 | 132 | 0.9 | 1.7 | 0.00 | 0.00 | 0.00 | 89 | 1028.6 |
| 20260509150049 | 55 | 132 | 0.9 | 1.7 | 0.00 | 0.00 | 0.00 | 89 | 1028.7 |
| 20260509145540 | 55 | 132 | 0.9 | 1.7 | 0.00 | 0.00 | 0.00 | 89 | 1028.8 |
| 20260509145040 | 55 | 132 | 0.9 | 2.6 | 0.00 | 0.00 | 0.00 | 89 | 1028.8 |
| 20260509144555 | 55 | 132 | 1.7 | 3.5 | 0.00 | 0.00 | 0.00 | 89 | 1028.7 |
| 20260509144039 | 55 | 133 | 1.7 | 3.5 | 0.00 | 0.00 | 0.00 | 89 | 1028.8 |
| 20260509143540 | 55 | 122 | 1.7 | 3.5 | 0.00 | 0.00 | 0.00 | 89 | 1028.8 |
| 20260509143058 | 55 | 112 | 1.7 | 2.6 | 0.00 | 0.00 | 0.00 | 89 | 1028.8 |
| 20260509142540 | 55 | 111 | 0.9 | 2.6 | 0.00 | 0.00 | 0.00 | 89 | 1028.9 |
| 20260509142040 | 55 | 111 | 1.7 | 2.6 | 0.00 | 0.00 | 0.00 | 89 | 1028.9 |
| 20260509141550 | 55 | 111 | 0.9 | 2.6 | 0.00 | 0.00 | 0.00 | 89 | 1028.8 |
| 20260509141041 | 55 | 111 | 1.7 | 2.6 | 0.00 | 0.00 | 0.00 | 89 | 1028.9 |
| 20260509140542 | 55 | 111 | 1.7 | 2.6 | 0.00 | 0.00 | 0.00 | 89 | 1029.0 |
| 20260509140059 | 55 | 111 | 0.9 | 1.7 | 0.00 | 0.00 | 0.00 | 89 | 1028.9 |
| 20260509135539 | 55 | 111 | 0.9 | 1.7 | 0.00 | 0.00 | 0.00 | 89 | 1028.9 |
| 20260509135040 | 55 | 111 | 0.9 | 1.7 | 0.00 | 0.00 | 0.00 | 89 | 1028.8 |
| 20260509134554 | 55 | 0 | 0.0 | 0.9 | 0.00 | 0.00 | 0.00 | 89 | 1028.9 |
| 20260509134039 | 55 | 0 | 0.0 | 0.9 | 0.00 | 0.00 | 0.00 | 89 | 1028.8 |
| 20260509133539 | 55 | 0 | 0.0 | 2.6 | 0.00 | 0.00 | 0.00 | 89 | 1028.8 |
| 20260509133052 | 55 | 0 | 0.9 | 3.5 | 0.00 | 0.00 | 0.00 | 89 | 1028.9 |
| 20260509132540 | 55 | 112 | 1.7 | 3.5 | 0.00 | 0.00 | 0.00 | 89 | 1028.9 |
| 20260509132040 | 55 | 103 | 2.6 | 3.5 | 0.00 | 0.00 | 0.00 | 89 | 1029.0 |
| 20260509131555 | 55 | 129 | 2.6 | 5.2 | 0.00 | 0.00 | 0.00 | 88 | 1029.1 |
| 20260509131039 | 56 | 124 | 2.6 | 7.0 | 0.00 | 0.00 | 0.00 | 87 | 1029.0 |
| 20260509130539 | 56 | 125 | 3.5 | 8.7 | 0.00 | 0.00 | 0.00 | 85 | 1029.0 |
| 20260509130048 | 56 | 145 | 5.2 | 8.7 | 0.00 | 0.00 | 0.00 | 83 | 1029.0 |
| 20260509125539 | 57 | 132 | 5.2 | 8.7 | 0.00 | 0.00 | 0.00 | 82 | 1029.0 |
| 20260509125039 | 57 | 136 | 4.3 | 6.1 | 0.00 | 0.00 | 0.00 | 82 | 1029.0 |
| 20260509124551 | 57 | 134 | 4.3 | 7.0 | 0.00 | 0.00 | 0.00 | 82 | 1029.0 |
| 20260509124040 | 57 | 143 | 4.3 | 7.0 | 0.00 | 0.00 | 0.00 | 82 | 1028.9 |
| 20260509123540 | 57 | 145 | 4.3 | 7.0 | 0.00 | 0.00 | 0.00 | 82 | 1028.8 |
| 20260509123050 | 57 | 148 | 5.2 | 7.0 | 0.00 | 0.00 | 0.00 | 81 | 1028.9 |
| 20260509122541 | 57 | 136 | 4.3 | 7.0 | 0.00 | 0.00 | 0.00 | 81 | 1028.8 |
| 20260509122040 | 57 | 143 | 4.3 | 7.8 | 0.00 | 0.00 | 0.00 | 81 | 1029.0 |
| 20260509121550 | 57 | 141 | 4.3 | 7.8 | 0.00 | 0.00 | 0.00 | 81 | 1028.9 |
| 20260509121041 | 57 | 152 | 4.3 | 7.0 | 0.00 | 0.00 | 0.00 | 80 | 1029.1 |
| 20260509120541 | 57 | 136 | 4.3 | 7.8 | 0.00 | 0.00 | 0.00 | 79 | 1028.9 |
| 20260509120053 | 57 | 145 | 4.3 | 7.8 | 0.00 | 0.00 | 0.00 | 79 | 1029.0 |
| 20260509115539 | 57 | 140 | 4.3 | 7.8 | 0.00 | 0.00 | 0.00 | 79 | 1028.9 |
| 20260509115039 | 57 | 140 | 6.1 | 7.8 | 0.00 | 0.00 | 0.00 | 79 | 1028.9 |
| 20260509114546 | 57 | 131 | 4.3 | 7.0 | 0.00 | 0.00 | 0.00 | 79 | 1028.9 |
| 20260509114040 | 57 | 148 | 3.5 | 7.0 | 0.00 | 0.00 | 0.00 | 78 | 1028.9 |
| 20260509113539 | 57 | 142 | 4.3 | 7.0 | 0.00 | 0.00 | 0.00 | 78 | 1029.0 |
| 20260509113050 | 57 | 146 | 4.3 | 7.0 | 0.00 | 0.00 | 0.00 | 78 | 1028.9 |
| 20260509112540 | 57 | 139 | 4.3 | 7.0 | 0.00 | 0.00 | 0.00 | 78 | 1029.0 |
| 20260509112041 | 57 | 132 | 4.3 | 7.0 | 0.00 | 0.00 | 0.00 | 78 | 1029.0 |
| 20260509111544 | 57 | 150 | 4.3 | 7.0 | 0.00 | 0.00 | 0.00 | 78 | 1029.0 |
| 20260509111041 | 57 | 139 | 3.5 | 6.1 | 0.00 | 0.00 | 0.00 | 78 | 1029.0 |
| 20260509110540 | 57 | 143 | 4.3 | 6.1 | 0.00 | 0.00 | 0.00 | 78 | 1029.1 |
| 20260509110049 | 57 | 143 | 3.5 | 6.1 | 0.00 | 0.00 | 0.00 | 78 | 1029.1 |
| 20260509105540 | 57 | 147 | 3.5 | 6.1 | 0.00 | 0.00 | 0.00 | 78 | 1029.1 |
| 20260509105040 | 57 | 141 | 3.5 | 5.2 | 0.00 | 0.00 | 0.00 | 78 | 1029.1 |
| 20260509104554 | 57 | 135 | 3.5 | 5.2 | 0.00 | 0.00 | 0.00 | 78 | 1029.1 |
| 20260509104042 | 57 | 142 | 3.5 | 6.1 | 0.00 | 0.00 | 0.00 | 78 | 1029.0 |
| 20260509103539 | 57 | 129 | 3.5 | 6.1 | 0.00 | 0.00 | 0.00 | 77 | 1029.0 |
| 20260509103104 | 58 | 144 | 2.6 | 4.3 | 0.00 | 0.00 | 0.00 | 77 | 1028.9 |
| 20260509102539 | 58 | 139 | 2.6 | 4.3 | 0.00 | 0.00 | 0.00 | 77 | 1028.8 |
| 20260509102040 | 58 | 130 | 2.6 | 5.2 | 0.00 | 0.00 | 0.00 | 76 | 1028.8 |
| 20260509101546 | 58 | 151 | 2.6 | 6.1 | 0.00 | 0.00 | 0.00 | 76 | 1028.7 |
| 20260509101040 | 58 | 139 | 3.5 | 6.1 | 0.00 | 0.00 | 0.00 | 76 | 1028.6 |
| 20260509100540 | 58 | 143 | 3.5 | 6.1 | 0.00 | 0.00 | 0.00 | 76 | 1028.7 |
| 20260509100048 | 58 | 143 | 3.5 | 6.1 | 0.00 | 0.00 | 0.00 | 76 | 1028.7 |
| 20260509095538 | 58 | 146 | 3.5 | 7.0 | 0.00 | 0.00 | 0.00 | 76 | 1028.6 |
| 20260509095039 | 58 | 136 | 4.3 | 7.0 | 0.00 | 0.00 | 0.00 | 75 | 1028.6 |
| 20260509094600 | 58 | 144 | 4.3 | 7.0 | 0.00 | 0.00 | 0.00 | 75 | 1028.6 |
| 20260509094039 | 58 | 149 | 3.5 | 7.8 | 0.00 | 0.00 | 0.00 | 75 | 1028.6 |
| 20260509093540 | 58 | 134 | 5.2 | 9.6 | 0.00 | 0.00 | 0.00 | 75 | 1028.6 |
| 20260509093053 | 58 | 140 | 5.2 | 9.6 | 0.00 | 0.00 | 0.00 | 75 | 1028.7 |
| 20260509092544 | 58 | 154 | 6.1 | 11.3 | 0.00 | 0.00 | 0.00 | 74 | 1028.6 |
| 20260509092043 | 58 | 141 | 6.1 | 11.3 | 0.00 | 0.00 | 0.00 | 74 | 1028.6 |
| 20260509091556 | 59 | 148 | 6.1 | 10.4 | 0.00 | 0.00 | 0.00 | 73 | 1028.6 |
| 20260509091039 | 59 | 150 | 6.1 | 10.4 | 0.00 | 0.00 | 0.00 | 73 | 1028.5 |
| 20260509090540 | 59 | 146 | 6.1 | 10.4 | 0.00 | 0.00 | 0.00 | 73 | 1028.6 |
| 20260509090057 | 59 | 148 | 6.1 | 8.7 | 0.00 | 0.00 | 0.00 | 73 | 1028.5 |
| 20260509085543 | 59 | 153 | 5.2 | 9.6 | 0.00 | 0.00 | 0.00 | 72 | 1028.6 |
| 20260509085039 | 59 | 147 | 6.1 | 9.6 | 0.00 | 0.00 | 0.00 | 72 | 1028.6 |
| 20260509084604 | 59 | 153 | 5.2 | 9.6 | 0.00 | 0.00 | 0.00 | 71 | 1028.7 |
| 20260509084039 | 60 | 153 | 6.1 | 8.7 | 0.00 | 0.00 | 0.00 | 70 | 1028.5 |
| 20260509083540 | 60 | 137 | 5.2 | 8.7 | 0.00 | 0.00 | 0.00 | 69 | 1028.5 |
| 20260509083104 | 60 | 145 | 6.1 | 8.7 | 0.00 | 0.00 | 0.00 | 68 | 1028.5 |
| 20260509082541 | 60 | 150 | 7.0 | 8.7 | 0.00 | 0.00 | 0.00 | 67 | 1028.4 |
| 20260509082043 | 60 | 138 | 5.2 | 8.7 | 0.00 | 0.00 | 0.00 | 67 | 1028.3 |
| 20260509081554 | 60 | 146 | 6.1 | 8.7 | 0.00 | 0.00 | 0.00 | 67 | 1028.4 |
| 20260509081040 | 60 | 149 | 5.2 | 7.8 | 0.00 | 0.00 | 0.00 | 66 | 1028.2 |
| 20260509080540 | 61 | 143 | 6.1 | 8.7 | 0.00 | 0.00 | 0.00 | 66 | 1028.2 |
| 20260509080052 | 61 | 142 | 6.1 | 10.4 | 0.00 | 0.00 | 0.00 | 66 | 1028.2 |
| 20260509075540 | 61 | 137 | 6.1 | 10.4 | 0.00 | 0.00 | 0.00 | 67 | 1028.3 |
| 20260509075041 | 61 | 156 | 6.1 | 10.4 | 0.00 | 0.00 | 0.00 | 67 | 1028.2 |
| 20260509074609 | 61 | 128 | 7.0 | 9.6 | 0.00 | 0.00 | 0.00 | 67 | 1028.2 |
| 20260509074042 | 61 | 137 | 6.1 | 9.6 | 0.00 | 0.00 | 0.00 | 66 | 1028.1 |
| 20260509073543 | 61 | 147 | 6.1 | 11.3 | 0.00 | 0.00 | 0.00 | 66 | 1028.1 |
| 20260509073103 | 61 | 141 | 7.0 | 11.3 | 0.00 | 0.00 | 0.00 | 66 | 1028.1 |
| 20260509072541 | 61 | 160 | 7.0 | 11.3 | 0.00 | 0.00 | 0.00 | 66 | 1028.0 |
| 20260509072040 | 61 | 141 | 7.0 | 11.3 | 0.00 | 0.00 | 0.00 | 65 | 1027.9 |
| 20260509071556 | 61 | 153 | 7.8 | 11.3 | 0.00 | 0.00 | 0.00 | 65 | 1027.9 |
| 20260509071041 | 62 | 141 | 7.0 | 11.3 | 0.00 | 0.00 | 0.00 | 65 | 1027.8 |
| 20260509070541 | 62 | 152 | 6.1 | 12.2 | 0.00 | 0.00 | 0.00 | 65 | 1027.8 |
| 20260509070057 | 62 | 156 | 5.2 | 12.2 | 0.00 | 0.00 | 0.00 | 65 | 1027.8 |
| 20260509065542 | 62 | 150 | 7.0 | 11.3 | 0.00 | 0.00 | 0.00 | 65 | 1027.8 |
| 20260509065040 | 62 | 176 | 7.0 | 11.3 | 0.00 | 0.00 | 0.00 | 64 | 1027.8 |
| 20260509064547 | 62 | 160 | 7.8 | 11.3 | 0.00 | 0.00 | 0.00 | 64 | 1027.7 |
| 20260509064041 | 62 | 135 | 6.1 | 9.6 | 0.00 | 0.00 | 0.00 | 64 | 1027.8 |
| 20260509063540 | 62 | 131 | 7.0 | 9.6 | 0.00 | 0.00 | 0.00 | 63 | 1027.7 |
| 20260509063058 | 63 | 134 | 7.0 | 9.6 | 0.00 | 0.00 | 0.00 | 62 | 1027.6 |
| 20260509062541 | 63 | 132 | 6.1 | 9.6 | 0.00 | 0.00 | 0.00 | 62 | 1027.6 |
| 20260509062042 | 63 | 138 | 5.2 | 9.6 | 0.00 | 0.00 | 0.00 | 63 | 1027.6 |
| 20260509061548 | 63 | 134 | 6.1 | 9.6 | 0.00 | 0.00 | 0.00 | 62 | 1027.6 |